World > North America > United States > Ohio > New Cumberland  

New Cumberland, OH Hourly Weather Updates

Feedback E-mail the Weather

Quick Clicks

New Cumberland, OH Weather Maps

°F °C°F °C
New Cumberland Weather Map
UTC Time: 4/23/2024, 17:09
Your Time:

New Cumberland, OH Regional Weather

Expires:202404231800;;246675
ASUS41 KCLE 231702
RWRCLE
OHIO REGIONAL WEATHER ROUNDUP
NATIONAL WEATHER SERVICE CLEVELAND, OH
100 PM EDT TUE APR 23 2024

NOTE: "FAIR" INDICATES FEW OR NO CLOUDS BELOW 12,000 FEET WITH NO
SIGNIFICANT WEATHER AND/OR OBSTRUCTIONS TO VISIBILITY.


OHZ036-037-039>041-045>050-054>059-063>069-073>076-082>088-231800-
  CENTRAL AND SOUTHEAST OHIO
  
CITY           SKY/WX    TMP DP  RH WIND       PRES   REMARKS
COLUMBUS       PTSUNNY   63  35  35 S16G31    29.97F                  
OSU AIRPORT    PTSUNNY   63  36  36 SW21G32   29.96F                  
BOLTON FIELD   PTSUNNY   63  37  39 SW18G25   29.98F                  
RICKENBACK AFB NOT AVBL                                               
NEWARK         PTSUNNY   64  35  34 SW15G28   29.97F                  
MARION         CLOUDY    59  36  42 SW18G30   29.94R                  
LANCASTER      PTSUNNY   66  37  34 SW16G28   29.99F                  
ZANESVILLE     PTSUNNY   65  34  31 SW14G28   29.98F                  
NEW PHILLY     NOT AVBL                                               
$$
  

SKY/WX - Weather  TMP - Temperature  DP - Dew Point  RH - Humidity
WIND - Wind Direction/Speed PRES - Barometric Pressure VSB - Visibility
WCI - Wind Chill Index E13G22 Wind - East Wind 13 mph/Gusts of 22 mph

Trending Headlines

Trending Entertainment Headlines

New Cumberland Radar Loop

Use the map search tool if you want to place a location marker on the radar map...

New Cumberland Quick Facts

National Two Day Weather Forecast


E-mail the New Cumberland Weather Forecast

Voice your opinion or tell us about page issues...